Wetterdaten: Freitag, 08.12.2017
Datum Zeit Temp. A. Aussen2m Feuchte A. Feuchte 2 Luftdruck Regen Wind Richtung Richtung Sonnenschein
08.12.2017 00:00 6,4 C 6,5 C 96 % 92 % 1005,8 hPa 0,0 l/m 13,3 km/h (3 Bft) SW 225 0 min
08.12.2017 00:05 6,3 C 6,5 C 96 % 92 % 1004,8 hPa 0,0 l/m 11,5 km/h (2 Bft) N-NO 20 0 min
08.12.2017 00:10 6,4 C 6,4 C 95 % 92 % 1004,8 hPa 0,0 l/m 12,1 km/h (2 Bft) SW 225 0 min
08.12.2017 00:15 6,4 C 6,5 C 95 % 91 % 1004,8 hPa 0,0 l/m 13,3 km/h (3 Bft) SW 235 0 min
08.12.2017 00:20 6,4 C 6,4 C 95 % 91 % 1004,8 hPa 0,0 l/m 19,4 km/h (3 Bft) W 260 0 min
08.12.2017 00:25 6,4 C 6,4 C 94 % 91 % 1004,8 hPa 0,0 l/m 13,3 km/h (3 Bft) W-NW 300 0 min
08.12.2017 00:30 6,4 C 6,4 C 94 % 91 % 1004,8 hPa 0,0 l/m 13,9 km/h (3 Bft) S-SW 200 0 min
08.12.2017 00:35 6,3 C 6,4 C 95 % 91 % 1005,8 hPa 0,0 l/m 15,7 km/h (3 Bft) SW 220 0 min
08.12.2017 00:40 6,3 C 6,4 C 94 % 91 % 1005,8 hPa 0,0 l/m 16,9 km/h (3 Bft) W-NW 295 0 min
08.12.2017 00:45 6,3 C 6,3 C 94 % 91 % 1005,8 hPa 0,0 l/m 18,2 km/h (3 Bft) N-NW 335 0 min
08.12.2017 00:50 6,3 C 6,4 C 94 % 90 % 1005,8 hPa 0,0 l/m 16,9 km/h (3 Bft) NW 325 0 min
08.12.2017 00:55 6,2 C 6,3 C 94 % 90 % 1005,8 hPa 0,0 l/m 13,9 km/h (3 Bft) W 270 0 min
08.12.2017 01:00 6,1 C 6,2 C 94 % 90 % 1005,8 hPa 0,0 l/m 12,7 km/h (3 Bft) W 260 0 min
08.12.2017 01:05 6,1 C 6,2 C 94 % 90 % 1004,8 hPa 0,0 l/m 18,8 km/h (3 Bft) W-NW 295 0 min
08.12.2017 01:10 6,1 C 6,2 C 94 % 90 % 1004,8 hPa 0,0 l/m 15,7 km/h (3 Bft) W 275 0 min
08.12.2017 01:15 6,0 C 6,2 C 94 % 90 % 1004,8 hPa 0,0 l/m 13,9 km/h (3 Bft) W-SW 240 0 min
08.12.2017 01:20 5,9 C 6,1 C 94 % 91 % 1004,8 hPa 0,0 l/m 15,1 km/h (3 Bft) NW 310 0 min
08.12.2017 01:25 5,8 C 6,0 C 94 % 91 % 1004,8 hPa 0,0 l/m 12,1 km/h (2 Bft) W-SW 240 0 min
08.12.2017 01:30 5,9 C 5,9 C 95 % 91 % 1004,8 hPa 0,0 l/m 9,1 km/h (2 Bft) SW 235 0 min
08.12.2017 01:35 5,8 C 5,8 C 95 % 91 % 1005,8 hPa 0,0 l/m 13,9 km/h (3 Bft) W 260 0 min
08.12.2017 01:40 5,7 C 5,8 C 95 % 91 % 1005,8 hPa 0,0 l/m 16,3 km/h (3 Bft) W-SW 255 0 min
08.12.2017 01:45 5,7 C 5,8 C 95 % 91 % 1005,8 hPa 0,0 l/m 17,6 km/h (3 Bft) SW 215 0 min
08.12.2017 01:50 5,8 C 5,8 C 95 % 91 % 1005,8 hPa 0,0 l/m 12,7 km/h (3 Bft) W-SW 240 0 min
08.12.2017 01:55 5,8 C 5,8 C 95 % 91 % 1005,8 hPa 0,0 l/m 12,1 km/h (2 Bft) W-SW 245 0 min
08.12.2017 02:00 5,7 C 5,8 C 95 % 91 % 1005,8 hPa 0,0 l/m 7,3 km/h (2 Bft) W-NW 300 0 min
08.12.2017 02:05 5,6 C 5,7 C 95 % 91 % 1005,8 hPa 0,0 l/m 15,7 km/h (3 Bft) NW 305 0 min
08.12.2017 02:10 5,6 C 5,7 C 95 % 92 % 1005,8 hPa 0,0 l/m 12,7 km/h (3 Bft) SW 230 0 min
08.12.2017 02:15 5,6 C 5,7 C 96 % 92 % 1005,8 hPa 0,0 l/m 15,1 km/h (3 Bft) W 260 0 min
08.12.2017 02:20 5,6 C 5,7 C 95 % 92 % 1005,8 hPa 0,0 l/m 15,1 km/h (3 Bft) NW 310 0 min
08.12.2017 02:25 5,5 C 5,6 C 95 % 91 % 1005,8 hPa 0,0 l/m 16,3 km/h (3 Bft) SW 235 0 min
08.12.2017 02:30 5,4 C 5,5 C 95 % 91 % 1005,8 hPa 0,0 l/m 13,9 km/h (3 Bft) NW 310 0 min
08.12.2017 02:35 5,4 C 5,4 C 95 % 91 % 1005,8 hPa 0,0 l/m 18,2 km/h (3 Bft) S-SW 200 0 min
08.12.2017 02:40 5,4 C 5,5 C 95 % 91 % 1005,8 hPa 0,0 l/m 12,1 km/h (2 Bft) W 270 0 min
08.12.2017 02:45 5,2 C 5,3 C 95 % 91 % 1005,8 hPa 0,0 l/m 15,7 km/h (3 Bft) SW 235 0 min
08.12.2017 02:50 5,2 C 5,3 C 95 % 91 % 1004,8 hPa 0,0 l/m 15,7 km/h (3 Bft) W 260 0 min
08.12.2017 02:55 5,1 C 5,2 C 94 % 91 % 1004,8 hPa 0,0 l/m 15,7 km/h (3 Bft) W 265 0 min
08.12.2017 03:00 5,1 C 5,1 C 94 % 90 % 1004,8 hPa 0,0 l/m 18,2 km/h (3 Bft) NW 310 0 min
08.12.2017 03:05 5,1 C 5,1 C 93 % 90 % 1005,8 hPa 0,0 l/m 16,9 km/h (3 Bft) S 175 0 min
08.12.2017 03:10 5,1 C 5,2 C 93 % 90 % 1005,8 hPa 0,0 l/m 15,1 km/h (3 Bft) W 265 0 min
08.12.2017 03:15 5,1 C 5,1 C 92 % 89 % 1005,8 hPa 0,0 l/m 16,3 km/h (3 Bft) NW 320 0 min
08.12.2017 03:20 5,0 C 5,1 C 92 % 89 % 1005,8 hPa 0,0 l/m 10,9 km/h (2 Bft) W-NW 285 0 min
08.12.2017 03:25 4,9 C 4,9 C 93 % 89 % 1005,8 hPa 0,0 l/m 18,2 km/h (3 Bft) W-SW 250 0 min
08.12.2017 03:30 4,9 C 4,9 C 93 % 89 % 1005,8 hPa 0,0 l/m 14,5 km/h (3 Bft) W-SW 255 0 min
08.12.2017 03:35 4,9 C 4,9 C 92 % 90 % 1005,8 hPa 0,0 l/m 16,9 km/h (3 Bft) SW 230 0 min
08.12.2017 03:40 4,9 C 4,9 C 92 % 89 % 1005,8 hPa 0,0 l/m 13,3 km/h (3 Bft) W-SW 245 0 min
08.12.2017 03:45 5,0 C 4,9 C 92 % 89 % 1005,8 hPa 0,0 l/m 16,3 km/h (3 Bft) SW 225 0 min
08.12.2017 03:50 5,0 C 5,0 C 92 % 89 % 1005,8 hPa 0,3 l/m 18,8 km/h (3 Bft) NW 305 0 min
08.12.2017 03:55 4,9 C 4,9 C 91 % 89 % 1005,8 hPa 0,0 l/m 29,0 km/h (5 Bft) NW 310 0 min
08.12.2017 04:00 4,8 C 4,9 C 91 % 88 % 1005,8 hPa 0,0 l/m 24,2 km/h (4 Bft) S-SW 210 0 min
08.12.2017 04:05 4,7 C 4,9 C 92 % 89 % 1005,8 hPa 0,0 l/m 11,5 km/h (2 Bft) NW 305 0 min
08.12.2017 04:10 4,8 C 4,9 C 92 % 89 % 1005,8 hPa 0,0 l/m 15,7 km/h (3 Bft) SW 225 0 min
08.12.2017 04:15 4,8 C 4,9 C 92 % 89 % 1005,8 hPa 0,0 l/m 21,2 km/h (4 Bft) SW 235 0 min
08.12.2017 04:20 4,8 C 4,9 C 92 % 89 % 1005,8 hPa 0,0 l/m 17,6 km/h (3 Bft) W 275 0 min
08.12.2017 04:25 4,7 C 4,9 C 93 % 90 % 1005,8 hPa 0,3 l/m 13,3 km/h (3 Bft) W-SW 245 0 min
08.12.2017 04:30 4,6 C 4,8 C 93 % 90 % 1005,8 hPa 0,3 l/m 22,4 km/h (4 Bft) W 265 0 min
08.12.2017 04:35 4,6 C 4,8 C 93 % 90 % 1005,8 hPa 0,0 l/m 23,0 km/h (4 Bft) W 270 0 min
08.12.2017 04:40 4,5 C 4,7 C 95 % 91 % 1005,8 hPa 0,0 l/m 12,7 km/h (3 Bft) SW 235 0 min
08.12.2017 04:45 4,5 C 4,7 C 95 % 91 % 1005,8 hPa 0,3 l/m 20,6 km/h (4 Bft) W-NW 295 0 min
08.12.2017 04:50 4,3 C 4,5 C 95 % 91 % 1005,8 hPa 0,3 l/m 27,1 km/h (5 Bft) W-NW 290 0 min
08.12.2017 04:55 4,1 C 4,4 C 94 % 90 % 1005,8 hPa 0,0 l/m 16,9 km/h (3 Bft) SW 230 0 min
08.12.2017 05:00 4,1 C 4,2 C 94 % 90 % 1005,8 hPa 0,0 l/m 13,9 km/h (3 Bft) S-SO 155 0 min
08.12.2017 05:05 3,9 C 4,2 C 93 % 89 % 1005,8 hPa 0,0 l/m 12,7 km/h (3 Bft) W-NW 285 0 min
08.12.2017 05:10 4,0 C 4,1 C 93 % 89 % 1005,8 hPa 0,0 l/m 21,2 km/h (4 Bft) SW 235 0 min
08.12.2017 05:15 3,8 C 4,0 C 93 % 89 % 1005,8 hPa 0,0 l/m 16,3 km/h (3 Bft) N-NW 340 0 min
08.12.2017 05:20 3,7 C 3,9 C 94 % 90 % 1005,8 hPa 0,0 l/m 14,5 km/h (3 Bft) SW 235 0 min
08.12.2017 05:25 3,7 C 3,9 C 94 % 90 % 1005,8 hPa 0,0 l/m 10,9 km/h (2 Bft) W 265 0 min
08.12.2017 05:30 3,8 C 3,9 C 95 % 90 % 1005,8 hPa 0,0 l/m 18,2 km/h (3 Bft) S-SW 205 0 min
08.12.2017 05:35 3,7 C 3,8 C 95 % 90 % 1005,8 hPa 0,0 l/m 12,7 km/h (3 Bft) NW 325 0 min
08.12.2017 05:40 3,7 C 3,8 C 95 % 91 % 1005,8 hPa 0,0 l/m 14,5 km/h (3 Bft) W 275 0 min
08.12.2017 05:45 3,8 C 3,8 C 94 % 90 % 1005,8 hPa 0,0 l/m 20,6 km/h (4 Bft) N-NW 345 0 min
08.12.2017 05:50 3,7 C 3,7 C 94 % 90 % 1005,8 hPa 0,0 l/m 17,6 km/h (3 Bft) W-SW 250 0 min
08.12.2017 05:55 3,7 C 3,7 C 93 % 90 % 1005,8 hPa 0,0 l/m 16,3 km/h (3 Bft) S-SW 205 0 min
08.12.2017 06:00 3,6 C 3,6 C 93 % 89 % 1005,8 hPa 0,0 l/m 15,7 km/h (3 Bft) N-NW 340 0 min
08.12.2017 06:05 3,7 C 3,7 C 92 % 89 % 1005,8 hPa 0,0 l/m 22,4 km/h (4 Bft) W-NW 285 0 min
08.12.2017 06:10 3,6 C 3,6 C 92 % 89 % 1005,8 hPa 0,0 l/m 18,2 km/h (3 Bft) SW 235 0 min
08.12.2017 06:15 3,5 C 3,6 C 92 % 89 % 1005,8 hPa 0,0 l/m 13,3 km/h (3 Bft) W-SW 245 0 min
08.12.2017 06:20 3,5 C 3,6 C 92 % 89 % 1005,8 hPa 0,0 l/m 14,5 km/h (3 Bft) W-SW 250 0 min
08.12.2017 06:25 3,5 C 3,5 C 91 % 89 % 1005,8 hPa 0,0 l/m 19,4 km/h (3 Bft) W-SW 240 0 min
08.12.2017 06:30 3,3 C 3,4 C 92 % 89 % 1005,8 hPa 0,0 l/m 16,9 km/h (3 Bft) SW 230 0 min
08.12.2017 06:35 3,4 C 3,4 C 91 % 89 % 1005,8 hPa 0,0 l/m 18,2 km/h (3 Bft) W-SW 240 0 min
08.12.2017 06:40 3,5 C 3,4 C 91 % 89 % 1005,8 hPa 0,0 l/m 16,3 km/h (3 Bft) W-SW 250 0 min
08.12.2017 06:45 3,3 C 3,4 C 91 % 88 % 1005,8 hPa 0,0 l/m 16,3 km/h (3 Bft) SW 215 0 min
08.12.2017 06:50 3,3 C 3,3 C 91 % 89 % 1005,8 hPa 0,0 l/m 15,7 km/h (3 Bft) W-NW 300 0 min
08.12.2017 06:55 3,2 C 3,3 C 91 % 89 % 1005,8 hPa 0,0 l/m 21,2 km/h (4 Bft) W 270 0 min
08.12.2017 07:00 3,1 C 3,1 C 91 % 89 % 1005,8 hPa 0,0 l/m 18,8 km/h (3 Bft) SW 220 0 min
08.12.2017 07:05 3,2 C 3,1 C 91 % 89 % 1005,8 hPa 0,0 l/m 20,0 km/h (4 Bft) W-SW 245 0 min
08.12.2017 07:10 3,1 C 3,1 C 91 % 89 % 1005,8 hPa 0,0 l/m 16,3 km/h (3 Bft) W-SW 250 0 min
08.12.2017 07:15 3,1 C 3,0 C 91 % 89 % 1005,9 hPa 0,0 l/m 20,6 km/h (4 Bft) W-SW 240 0 min
08.12.2017 07:20 3,1 C 3,0 C 91 % 89 % 1005,9 hPa 0,0 l/m 18,2 km/h (3 Bft) SW 235 0 min
08.12.2017 07:25 3,1 C 3,0 C 90 % 89 % 1005,9 hPa 0,0 l/m 25,4 km/h (4 Bft) W 265 0 min
08.12.2017 07:30 3,0 C 3,0 C 91 % 89 % 1005,9 hPa 0,0 l/m 16,9 km/h (3 Bft) SW 225 0 min
08.12.2017 07:35 3,1 C 2,9 C 91 % 88 % 1005,9 hPa 0,0 l/m 18,8 km/h (3 Bft) SW 225 0 min
08.12.2017 07:40 2,9 C 2,9 C 91 % 88 % 1005,9 hPa 0,0 l/m 16,9 km/h (3 Bft) W 280 0 min
08.12.2017 07:45 3,0 C 2,8 C 91 % 89 % 1005,9 hPa 0,0 l/m 19,4 km/h (3 Bft) SW 220 0 min
08.12.2017 07:50 3,1 C 2,9 C 91 % 89 % 1005,9 hPa 0,0 l/m 26,3 km/h (4 Bft) W 275 0 min
08.12.2017 07:55 3,1 C 3,1 C 91 % 89 % 1005,8 hPa 0,0 l/m 23,0 km/h (4 Bft) W-NW 295 0 min
08.12.2017 08:00 3,1 C 3,1 C 91 % 89 % 1005,8 hPa 0,0 l/m 29,4 km/h (5 Bft) N-NW 330 0 min
08.12.2017 08:05 2,8 C 2,9 C 90 % 88 % 1005,9 hPa 0,0 l/m 27,1 km/h (5 Bft) NW 310 0 min
08.12.2017 08:10 2,8 C 2,9 C 91 % 88 % 1005,9 hPa 0,0 l/m 22,4 km/h (4 Bft) W-NW 290 0 min
08.12.2017 08:15 2,8 C 2,9 C 91 % 88 % 1005,9 hPa 0,0 l/m 20,6 km/h (4 Bft) W-SW 255 0 min
08.12.2017 08:20 2,8 C 2,9 C 91 % 88 % 1005,9 hPa 0,0 l/m 26,0 km/h (4 Bft) W 260 0 min
08.12.2017 08:25 2,5 C 2,7 C 91 % 88 % 1005,9 hPa 0,0 l/m 32,1 km/h (5 Bft) S-SW 205 0 min
08.12.2017 08:30 2,2 C 2,5 C 91 % 88 % 1005,9 hPa 0,0 l/m 29,8 km/h (5 Bft) SW 230 0 min
08.12.2017 08:35 2,1 C 2,3 C 92 % 88 % 1005,9 hPa 0,0 l/m 26,0 km/h (4 Bft) SW 235 0 min
08.12.2017 08:40 2,2 C 2,3 C 91 % 88 % 1005,9 hPa 0,0 l/m 33,3 km/h (5 Bft) S-SW 200 0 min
08.12.2017 08:45 2,2 C 2,3 C 91 % 88 % 1005,9 hPa 0,0 l/m 20,6 km/h (4 Bft) N-NW 335 0 min
08.12.2017 08:50 2,3 C 2,3 C 91 % 88 % 1006,9 hPa 0,0 l/m 24,2 km/h (4 Bft) SW 235 0 min
08.12.2017 08:55 2,2 C 2,2 C 92 % 89 % 1006,9 hPa 0,0 l/m 18,8 km/h (3 Bft) SW 235 0 min
08.12.2017 09:00 2,3 C 2,2 C 91 % 89 % 1006,9 hPa 0,0 l/m 21,2 km/h (4 Bft) SW 235 0 min
08.12.2017 09:05 2,4 C 2,3 C 90 % 88 % 1005,9 hPa 0,0 l/m 27,8 km/h (5 Bft) W-SW 250 0 min
08.12.2017 09:10 2,3 C 2,3 C 89 % 88 % 1005,9 hPa 0,0 l/m 24,2 km/h (4 Bft) W-NW 300 0 min
08.12.2017 09:15 2,2 C 2,2 C 90 % 88 % 1005,9 hPa 0,0 l/m 22,4 km/h (4 Bft) W 260 0 min
08.12.2017 09:20 2,1 C 2,2 C 90 % 88 % 1006,9 hPa 0,0 l/m 23,6 km/h (4 Bft) W-SW 245 0 min
08.12.2017 09:25 2,2 C 2,2 C 89 % 88 % 1006,9 hPa 0,0 l/m 26,0 km/h (4 Bft) W-SW 245 0 min
08.12.2017 09:30 2,2 C 2,2 C 90 % 88 % 1006,9 hPa 0,0 l/m 27,8 km/h (5 Bft) W-SW 240 0 min
08.12.2017 09:35 2,2 C 2,2 C 90 % 88 % 1006,9 hPa 0,0 l/m 24,2 km/h (4 Bft) W-SW 250 0 min
08.12.2017 09:40 2,1 C 2,2 C 90 % 88 % 1006,9 hPa 0,0 l/m 21,8 km/h (4 Bft) S-SW 205 1 min
08.12.2017 09:45 2,2 C 2,2 C 91 % 89 % 1006,9 hPa 0,0 l/m 21,8 km/h (4 Bft) SW 230 4 min
08.12.2017 09:50 2,2 C 2,2 C 91 % 89 % 1006,9 hPa 0,0 l/m 20,6 km/h (4 Bft) W-SW 240 2 min
08.12.2017 09:55 2,3 C 2,3 C 93 % 90 % 1006,9 hPa 0,0 l/m 23,0 km/h (4 Bft) SW 230 2 min
08.12.2017 10:00 2,6 C 2,4 C 93 % 91 % 1006,9 hPa 0,0 l/m 23,6 km/h (4 Bft) S-SW 205 5 min
08.12.2017 10:05 2,7 C 2,6 C 92 % 91 % 1005,9 hPa 0,0 l/m 20,0 km/h (4 Bft) S-SW 205 5 min
08.12.2017 10:10 2,8 C 2,7 C 92 % 90 % 1005,9 hPa 0,0 l/m 20,6 km/h (4 Bft) SW 220 3 min
08.12.2017 10:15 2,9 C 2,7 C 91 % 90 % 1005,9 hPa 0,0 l/m 23,0 km/h (4 Bft) SW 235 6 min
08.12.2017 10:20 3,1 C 2,9 C 91 % 91 % 1005,9 hPa 0,0 l/m 24,8 km/h (4 Bft) SW 225 5 min
08.12.2017 10:25 3,1 C 3,0 C 91 % 90 % 1005,9 hPa 0,0 l/m 20,6 km/h (4 Bft) SW 235 1 min
08.12.2017 10:30 3,1 C 3,0 C 90 % 89 % 1005,9 hPa 0,0 l/m 28,2 km/h (5 Bft) S 180 0 min
08.12.2017 10:35 3,1 C 3,1 C 90 % 89 % 1006,9 hPa 0,0 l/m 21,8 km/h (4 Bft) NW 305 0 min
08.12.2017 10:40 3,1 C 3,1 C 91 % 89 % 1006,9 hPa 0,0 l/m 22,4 km/h (4 Bft) SW 220 0 min
08.12.2017 10:45 3,1 C 3,1 C 91 % 89 % 1006,9 hPa 0,0 l/m 29,0 km/h (5 Bft) W 280 0 min
08.12.2017 10:50 3,1 C 3,2 C 90 % 89 % 1006,9 hPa 0,0 l/m 31,3 km/h (5 Bft) W-NW 285 1 min
08.12.2017 10:55 3,1 C 3,3 C 90 % 89 % 1006,9 hPa 0,0 l/m 27,8 km/h (5 Bft) SW 230 3 min
08.12.2017 11:00 3,0 C 3,2 C 91 % 89 % 1006,9 hPa 0,0 l/m 28,2 km/h (5 Bft) NW 310 0 min
08.12.2017 11:05 2,6 C 3,0 C 93 % 89 % 1005,9 hPa 0,0 l/m 22,4 km/h (4 Bft) NW 315 0 min
08.12.2017 11:10 2,7 C 2,9 C 93 % 89 % 1005,9 hPa 0,0 l/m 18,2 km/h (3 Bft) W-SW 245 1 min
08.12.2017 11:15 2,8 C 3,0 C 93 % 90 % 1005,9 hPa 0,0 l/m 21,8 km/h (4 Bft) N-NW 345 7 min
08.12.2017 11:20 2,8 C 3,0 C 93 % 90 % 1005,9 hPa 0,0 l/m 18,8 km/h (3 Bft) W 265 1 min
08.12.2017 11:25 2,7 C 2,9 C 94 % 90 % 1005,9 hPa 0,0 l/m 20,0 km/h (4 Bft) W-SW 245 0 min
08.12.2017 11:30 2,8 C 3,0 C 93 % 91 % 1005,9 hPa 0,0 l/m 26,3 km/h (4 Bft) W-SW 240 0 min
08.12.2017 11:35 3,0 C 3,1 C 92 % 91 % 1005,8 hPa 0,3 l/m 28,6 km/h (5 Bft) SW 225 0 min
08.12.2017 11:40 3,1 C 3,1 C 92 % 90 % 1005,8 hPa 0,0 l/m 37,9 km/h (6 Bft) W 275 0 min
08.12.2017 11:45 3,1 C 3,1 C 92 % 90 % 1005,8 hPa 0,0 l/m 29,8 km/h (5 Bft) W 260 0 min
08.12.2017 11:50 3,1 C 3,2 C 91 % 89 % 1005,8 hPa 0,0 l/m 30,9 km/h (5 Bft) W 270 0 min
08.12.2017 11:55 3,1 C 3,2 C 92 % 89 % 1005,8 hPa 0,0 l/m 36,0 km/h (5 Bft) SW 235 0 min
08.12.2017 12:00 2,9 C 3,1 C 92 % 89 % 1005,8 hPa 0,0 l/m 26,3 km/h (4 Bft) SW 235 0 min
08.12.2017 12:05 3,0 C 3,2 C 93 % 90 % 1005,8 hPa 0,0 l/m 29,4 km/h (5 Bft) SW 230 0 min
08.12.2017 12:10 3,0 C 3,1 C 93 % 90 % 1005,8 hPa 0,0 l/m 24,2 km/h (4 Bft) NW 315 0 min
08.12.2017 12:15 3,1 C 3,2 C 92 % 89 % 1005,8 hPa 0,0 l/m 30,9 km/h (5 Bft) SW 225 0 min
08.12.2017 12:20 3,1 C 3,2 C 92 % 89 % 1005,8 hPa 0,0 l/m 28,6 km/h (5 Bft) NW 310 0 min
08.12.2017 12:25 3,0 C 3,1 C 92 % 89 % 1005,8 hPa 0,0 l/m 30,5 km/h (5 Bft) W-SW 240 0 min
08.12.2017 12:30 2,8 C 3,1 C 93 % 90 % 1005,8 hPa 0,3 l/m 26,3 km/h (4 Bft) S-SW 200 0 min
08.12.2017 12:35 2,7 C 3,0 C 94 % 90 % 1005,9 hPa 0,0 l/m 24,8 km/h (4 Bft) SW 225 0 min
08.12.2017 12:40 2,6 C 3,0 C 95 % 91 % 1005,9 hPa 0,0 l/m 21,8 km/h (4 Bft) W-NW 300 0 min
08.12.2017 12:45 2,4 C 2,8 C 95 % 91 % 1005,9 hPa 0,3 l/m 21,8 km/h (4 Bft) W 265 0 min
08.12.2017 12:50 2,3 C 2,7 C 95 % 91 % 1005,9 hPa 0,0 l/m 23,0 km/h (4 Bft) W-NW 285 0 min
08.12.2017 12:55 2,3 C 2,7 C 96 % 92 % 1005,9 hPa 0,0 l/m 24,8 km/h (4 Bft) SW 225 0 min
08.12.2017 13:00 2,3 C 2,6 C 96 % 92 % 1005,9 hPa 0,3 l/m 34,4 km/h (5 Bft) W-SW 250 0 min
08.12.2017 13:05 2,4 C 2,6 C 96 % 92 % 1005,9 hPa 0,0 l/m 26,0 km/h (4 Bft) SW 235 0 min
08.12.2017 13:10 2,3 C 2,6 C 96 % 92 % 1005,9 hPa 0,0 l/m 25,4 km/h (4 Bft) W-SW 245 0 min
08.12.2017 13:15 2,2 C 2,5 C 97 % 92 % 1005,9 hPa 0,3 l/m 29,4 km/h (5 Bft) W-SW 250 0 min
08.12.2017 13:20 2,0 C 2,4 C 97 % 92 % 1006,9 hPa 0,0 l/m 36,4 km/h (5 Bft) SW 220 0 min
08.12.2017 13:25 1,9 C 2,2 C 97 % 92 % 1006,9 hPa 0,3 l/m 29,4 km/h (5 Bft) W-NW 290 0 min
08.12.2017 13:30 1,9 C 2,2 C 97 % 92 % 1006,9 hPa 0,0 l/m 27,1 km/h (5 Bft) W 270 0 min
08.12.2017 13:35 1,8 C 2,1 C 97 % 92 % 1006,9 hPa 0,3 l/m 30,2 km/h (5 Bft) NW 310 0 min
08.12.2017 13:40 1,9 C 2,1 C 97 % 92 % 1006,9 hPa 0,0 l/m 29,4 km/h (5 Bft) NW 315 0 min
08.12.2017 13:45 1,8 C 2,1 C 97 % 92 % 1006,9 hPa 0,0 l/m 28,6 km/h (5 Bft) W 280 0 min
08.12.2017 13:50 1,7 C 2,0 C 97 % 92 % 1006,9 hPa 0,0 l/m 30,2 km/h (5 Bft) S-SW 210 0 min
08.12.2017 13:55 1,7 C 2,0 C 96 % 92 % 1006,9 hPa 0,3 l/m 38,7 km/h (6 Bft) W-SW 240 0 min
08.12.2017 14:00 1,7 C 1,8 C 96 % 91 % 1006,9 hPa 0,0 l/m 29,4 km/h (5 Bft) W-NW 285 0 min
08.12.2017 14:05 1,2 C 1,5 C 97 % 91 % 1006,9 hPa 0,0 l/m 31,3 km/h (5 Bft) NW 325 0 min
08.12.2017 14:10 1,0 C 1,3 C 98 % 92 % 1006,9 hPa 0,3 l/m 21,2 km/h (4 Bft) W-NW 295 0 min
08.12.2017 14:15 0,8 C 1,3 C 98 % 93 % 1006,9 hPa 0,0 l/m 19,4 km/h (3 Bft) W 280 0 min
08.12.2017 14:20 0,7 C 1,1 C 99 % 93 % 1006,9 hPa 0,0 l/m 19,4 km/h (3 Bft) NW 305 0 min
08.12.2017 14:25 0,7 C 1,1 C 99 % 93 % 1006,9 hPa 0,3 l/m 19,4 km/h (3 Bft) NW 315 0 min
08.12.2017 14:30 0,7 C 1,0 C 99 % 94 % 1006,9 hPa 0,0 l/m 15,1 km/h (3 Bft) NW 310 0 min
08.12.2017 14:35 0,7 C 1,0 C 99 % 94 % 1006,9 hPa 0,0 l/m 9,1 km/h (2 Bft) W-NW 290 0 min
08.12.2017 14:40 0,7 C 1,0 C 99 % 94 % 1006,9 hPa 0,0 l/m 7,9 km/h (2 Bft) W-NW 290 0 min
08.12.2017 14:45 0,7 C 1,0 C 99 % 94 % 1006,9 hPa 0,0 l/m 7,9 km/h (2 Bft) W-SW 245 0 min
08.12.2017 14:50 0,8 C 1,1 C 99 % 94 % 1006,9 hPa 0,0 l/m 9,7 km/h (2 Bft) SW 215 0 min
08.12.2017 14:55 0,8 C 1,1 C 99 % 94 % 1006,9 hPa 0,0 l/m 10,3 km/h (2 Bft) W-SW 240 0 min
08.12.2017 15:00 1,0 C 1,2 C 99 % 95 % 1006,9 hPa 0,3 l/m 7,3 km/h (2 Bft) NW 320 3 min
08.12.2017 15:05 1,3 C 1,3 C 99 % 95 % 1006,9 hPa 0,0 l/m 9,1 km/h (2 Bft) W 280 6 min
08.12.2017 15:10 1,4 C 1,4 C 99 % 95 % 1006,9 hPa 0,0 l/m 9,1 km/h (2 Bft) SW 215 4 min
08.12.2017 15:15 1,4 C 1,5 C 99 % 95 % 1006,9 hPa 0,0 l/m 10,3 km/h (2 Bft) W-SW 240 6 min
08.12.2017 15:20 1,6 C 1,6 C 98 % 95 % 1006,9 hPa 0,0 l/m 13,9 km/h (3 Bft) SW 215 3 min
08.12.2017 15:25 1,7 C 1,6 C 98 % 95 % 1006,9 hPa 0,0 l/m 9,7 km/h (2 Bft) SW 215 3 min
08.12.2017 15:30 1,6 C 1,7 C 98 % 95 % 1006,9 hPa 0,0 l/m 12,1 km/h (2 Bft) SW 230 0 min
08.12.2017 15:35 1,6 C 1,7 C 98 % 95 % 1006,9 hPa 0,0 l/m 11,5 km/h (2 Bft) S-SW 205 0 min
08.12.2017 15:40 1,6 C 1,8 C 98 % 95 % 1006,9 hPa 0,0 l/m 13,3 km/h (3 Bft) SW 230 0 min
08.12.2017 15:45 1,6 C 1,7 C 98 % 95 % 1006,9 hPa 0,0 l/m 15,7 km/h (3 Bft) NW 320 0 min
08.12.2017 15:50 1,3 C 1,6 C 97 % 94 % 1007,9 hPa 0,0 l/m 41,0 km/h (6 Bft) NW 325 0 min
08.12.2017 15:55 1,2 C 1,4 C 98 % 93 % 1007,9 hPa 0,3 l/m 26,0 km/h (4 Bft) W-SW 245 0 min
08.12.2017 16:00 1,1 C 1,3 C 98 % 93 % 1007,9 hPa 0,3 l/m 18,2 km/h (3 Bft) NW 305 0 min
08.12.2017 16:05 1,1 C 1,2 C 98 % 93 % 1006,9 hPa 0,0 l/m 15,1 km/h (3 Bft) NW 310 0 min
08.12.2017 16:10 1,1 C 1,3 C 98 % 94 % 1006,9 hPa 0,0 l/m 13,3 km/h (3 Bft) SW 220 0 min
08.12.2017 16:15 1,1 C 1,3 C 98 % 94 % 1006,9 hPa 0,0 l/m 13,9 km/h (3 Bft) S-SW 210 0 min
08.12.2017 16:20 1,2 C 1,3 C 98 % 94 % 1007,9 hPa 0,0 l/m 14,5 km/h (3 Bft) W 280 0 min
08.12.2017 16:25 1,3 C 1,4 C 97 % 94 % 1007,9 hPa 0,3 l/m 15,1 km/h (3 Bft) W 260 0 min
08.12.2017 16:30 1,4 C 1,4 C 97 % 94 % 1007,9 hPa 0,0 l/m 21,8 km/h (4 Bft) W-NW 300 0 min
08.12.2017 16:35 1,3 C 1,5 C 97 % 93 % 1007,9 hPa 0,0 l/m 27,4 km/h (5 Bft) NW 315 0 min
08.12.2017 16:40 1,2 C 1,4 C 97 % 93 % 1007,9 hPa 0,0 l/m 19,4 km/h (3 Bft) W-NW 300 0 min
08.12.2017 16:45 1,4 C 1,5 C 96 % 93 % 1007,9 hPa 0,0 l/m 19,4 km/h (3 Bft) NW 310 0 min
08.12.2017 16:50 1,7 C 1,7 C 92 % 91 % 1007,9 hPa 0,3 l/m 36,8 km/h (5 Bft) W 280 0 min
08.12.2017 16:55 1,5 C 1,7 C 93 % 90 % 1007,9 hPa 0,0 l/m 29,0 km/h (5 Bft) NW 310 0 min
08.12.2017 17:00 1,4 C 1,6 C 94 % 91 % 1007,9 hPa 0,0 l/m 15,7 km/h (3 Bft) W 275 0 min
08.12.2017 17:05 1,4 C 1,5 C 94 % 91 % 1007,9 hPa 0,0 l/m 20,6 km/h (4 Bft) NW 315 0 min
08.12.2017 17:10 1,3 C 1,5 C 94 % 91 % 1007,9 hPa 0,0 l/m 16,3 km/h (3 Bft) W-SW 245 0 min
08.12.2017 17:15 1,3 C 1,4 C 94 % 91 % 1007,9 hPa 0,0 l/m 18,8 km/h (3 Bft) W 260 0 min
08.12.2017 17:20 1,4 C 1,4 C 92 % 90 % 1007,9 hPa 0,0 l/m 22,4 km/h (4 Bft) W 280 0 min
08.12.2017 17:25 1,4 C 1,5 C 90 % 88 % 1007,9 hPa 0,0 l/m 23,0 km/h (4 Bft) W 275 0 min
08.12.2017 17:30 1,5 C 1,5 C 88 % 87 % 1007,9 hPa 0,0 l/m 24,8 km/h (4 Bft) W 260 0 min
08.12.2017 17:35 1,6 C 1,6 C 87 % 85 % 1007,9 hPa 0,0 l/m 24,8 km/h (4 Bft) NW 305 0 min
08.12.2017 17:40 1,7 C 1,6 C 87 % 85 % 1007,9 hPa 0,0 l/m 21,8 km/h (4 Bft) W-SW 255 0 min
08.12.2017 17:45 1,5 C 1,6 C 88 % 86 % 1007,9 hPa 0,0 l/m 13,9 km/h (3 Bft) SW 225 0 min
08.12.2017 17:50 1,5 C 1,5 C 88 % 86 % 1007,9 hPa 0,0 l/m 12,7 km/h (3 Bft) SW 230 0 min
08.12.2017 17:55 1,6 C 1,6 C 87 % 85 % 1007,9 hPa 0,0 l/m 18,2 km/h (3 Bft) SW 220 0 min
08.12.2017 18:00 1,6 C 1,6 C 87 % 86 % 1007,9 hPa 0,0 l/m 21,2 km/h (4 Bft) SW 235 0 min
08.12.2017 18:05 1,5 C 1,5 C 88 % 86 % 1007,9 hPa 0,0 l/m 19,4 km/h (3 Bft) SW 235 0 min
08.12.2017 18:10 1,4 C 1,5 C 89 % 87 % 1007,9 hPa 0,0 l/m 23,6 km/h (4 Bft) W-SW 240 0 min
08.12.2017 18:15 1,5 C 1,5 C 89 % 87 % 1007,9 hPa 0,0 l/m 21,2 km/h (4 Bft) W-SW 255 0 min
08.12.2017 18:20 1,4 C 1,3 C 90 % 87 % 1008,9 hPa 0,0 l/m 23,6 km/h (4 Bft) SW 235 0 min
08.12.2017 18:25 1,4 C 1,3 C 89 % 87 % 1008,9 hPa 0,0 l/m 23,0 km/h (4 Bft) S 185 0 min
08.12.2017 18:30 1,2 C 1,3 C 91 % 88 % 1008,9 hPa 0,0 l/m 19,4 km/h (3 Bft) S-SW 205 0 min
08.12.2017 18:35 1,1 C 1,3 C 91 % 88 % 1007,9 hPa 0,0 l/m 14,5 km/h (3 Bft) W-SW 240 0 min
08.12.2017 18:40 1,1 C 1,1 C 92 % 88 % 1007,9 hPa 0,0 l/m 15,7 km/h (3 Bft) SW 225 0 min
08.12.2017 18:45 1,0 C 1,1 C 92 % 89 % 1007,9 hPa 0,0 l/m 15,1 km/h (3 Bft) W-SW 245 0 min
08.12.2017 18:50 1,0 C 1,0 C 92 % 89 % 1007,9 hPa 0,0 l/m 16,9 km/h (3 Bft) S-SW 210 0 min
08.12.2017 18:55 1,1 C 1,0 C 92 % 89 % 1007,9 hPa 0,0 l/m 16,9 km/h (3 Bft) W-SW 245 0 min
08.12.2017 19:00 1,1 C 1,1 C 92 % 89 % 1007,9 hPa 0,0 l/m 15,7 km/h (3 Bft) SW 230 0 min
08.12.2017 19:05 1,2 C 1,1 C 91 % 89 % 1007,9 hPa 0,0 l/m 14,5 km/h (3 Bft) SW 230 0 min
08.12.2017 19:10 1,4 C 1,2 C 90 % 88 % 1007,9 hPa 0,0 l/m 18,2 km/h (3 Bft) W-SW 245 0 min
08.12.2017 19:15 1,5 C 1,3 C 88 % 87 % 1007,9 hPa 0,0 l/m 20,6 km/h (4 Bft) W-SW 240 0 min
08.12.2017 19:20 1,6 C 1,4 C 88 % 87 % 1007,9 hPa 0,0 l/m 18,2 km/h (3 Bft) W 265 0 min
08.12.2017 19:25 1,6 C 1,4 C 88 % 87 % 1007,9 hPa 0,0 l/m 22,4 km/h (4 Bft) SW 230 0 min
08.12.2017 19:30 1,6 C 1,4 C 88 % 87 % 1007,9 hPa 0,0 l/m 20,6 km/h (4 Bft) S-SW 205 0 min
08.12.2017 19:35 1,7 C 1,5 C 87 % 87 % 1007,9 hPa 0,0 l/m 21,8 km/h (4 Bft) SW 220 0 min
08.12.2017 19:40 1,6 C 1,5 C 88 % 87 % 1007,9 hPa 0,0 l/m 19,4 km/h (3 Bft) W-SW 255 0 min
08.12.2017 19:45 1,6 C 1,5 C 88 % 87 % 1007,9 hPa 0,0 l/m 18,2 km/h (3 Bft) S-SW 200 0 min
08.12.2017 19:50 1,6 C 1,5 C 89 % 87 % 1007,9 hPa 0,0 l/m 20,6 km/h (4 Bft) W-SW 240 0 min
08.12.2017 19:55 1,6 C 1,6 C 89 % 87 % 1007,9 hPa 0,0 l/m 19,4 km/h (3 Bft) SW 225 0 min
08.12.2017 20:00 1,7 C 1,6 C 88 % 87 % 1007,9 hPa 0,0 l/m 26,3 km/h (4 Bft) S 175 0 min
08.12.2017 20:05 1,7 C 1,6 C 88 % 87 % 1008,9 hPa 0,0 l/m 20,6 km/h (4 Bft) W-SW 240 0 min
08.12.2017 20:10 1,8 C 1,7 C 87 % 86 % 1008,9 hPa 0,0 l/m 22,4 km/h (4 Bft) SW 235 0 min
08.12.2017 20:15 1,9 C 1,8 C 87 % 86 % 1008,9 hPa 0,0 l/m 21,8 km/h (4 Bft) SW 235 0 min
08.12.2017 20:20 1,8 C 1,8 C 87 % 86 % 1007,9 hPa 0,0 l/m 20,0 km/h (4 Bft) W-SW 255 0 min
08.12.2017 20:25 1,8 C 1,8 C 87 % 85 % 1007,9 hPa 0,0 l/m 16,3 km/h (3 Bft) SW 215 0 min
08.12.2017 20:30 1,9 C 1,8 C 86 % 85 % 1007,9 hPa 0,0 l/m 22,4 km/h (4 Bft) S-SW 195 0 min
08.12.2017 20:35 2,0 C 1,9 C 85 % 85 % 1007,9 hPa 0,0 l/m 24,8 km/h (4 Bft) W 270 0 min
08.12.2017 20:40 2,0 C 1,9 C 86 % 85 % 1007,9 hPa 0,0 l/m 21,8 km/h (4 Bft) W-SW 255 0 min
08.12.2017 20:45 1,9 C 1,9 C 86 % 85 % 1007,9 hPa 0,0 l/m 34,4 km/h (5 Bft) W 265 0 min
08.12.2017 20:50 1,8 C 1,8 C 86 % 85 % 1008,9 hPa 0,0 l/m 40,2 km/h (6 Bft) W 280 0 min
08.12.2017 20:55 1,3 C 1,4 C 90 % 87 % 1008,9 hPa 0,0 l/m 31,7 km/h (5 Bft) W 265 0 min
08.12.2017 21:00 0,9 C 1,2 C 93 % 90 % 1008,9 hPa 0,0 l/m 31,7 km/h (5 Bft) NW 305 0 min
08.12.2017 21:05 0,6 C 0,9 C 96 % 91 % 1008,9 hPa 0,0 l/m 27,8 km/h (5 Bft) W-NW 285 0 min
08.12.2017 21:10 0,5 C 0,7 C 97 % 92 % 1008,9 hPa 0,0 l/m 24,2 km/h (4 Bft) NW 310 0 min
08.12.2017 21:15 0,3 C 0,5 C 98 % 93 % 1008,9 hPa 0,0 l/m 15,1 km/h (3 Bft) W-SW 240 0 min
08.12.2017 21:20 0,3 C 0,4 C 99 % 93 % 1007,9 hPa 0,0 l/m 16,3 km/h (3 Bft) W-NW 295 0 min
08.12.2017 21:25 0,2 C 0,4 C 99 % 94 % 1007,9 hPa 0,0 l/m 22,4 km/h (4 Bft) W-SW 240 0 min
08.12.2017 21:30 0,2 C 0,3 C 99 % 95 % 1007,9 hPa 0,0 l/m 20,6 km/h (4 Bft) NW 310 0 min
08.12.2017 21:35 0,2 C 0,3 C 99 % 95 % 1007,9 hPa 0,0 l/m 13,9 km/h (3 Bft) SW 235 0 min
08.12.2017 21:40 0,2 C 0,2 C 99 % 95 % 1007,9 hPa 0,0 l/m 18,2 km/h (3 Bft) N-NW 345 0 min
08.12.2017 21:45 0,2 C 0,2 C 99 % 95 % 1007,9 hPa 0,0 l/m 18,2 km/h (3 Bft) W-NW 285 0 min
08.12.2017 21:50 0,2 C 0,2 C 99 % 96 % 1007,9 hPa 0,0 l/m 18,2 km/h (3 Bft) W-NW 295 0 min
08.12.2017 21:55 0,3 C 0,3 C 99 % 96 % 1007,9 hPa 0,0 l/m 16,9 km/h (3 Bft) NW 310 0 min
08.12.2017 22:00 0,3 C 0,3 C 99 % 96 % 1007,9 hPa 0,0 l/m 19,4 km/h (3 Bft) W-NW 285 0 min
08.12.2017 22:05 0,3 C 0,3 C 99 % 96 % 1008,9 hPa 0,0 l/m 14,5 km/h (3 Bft) W 275 0 min
08.12.2017 22:10 0,4 C 0,3 C 99 % 96 % 1008,9 hPa 0,0 l/m 23,0 km/h (4 Bft) SW 235 0 min
08.12.2017 22:15 0,4 C 0,4 C 99 % 96 % 1008,9 hPa 0,0 l/m 15,1 km/h (3 Bft) W 275 0 min
08.12.2017 22:20 0,4 C 0,4 C 99 % 96 % 1009,9 hPa 0,0 l/m 13,3 km/h (3 Bft) NW 315 0 min
08.12.2017 22:25 0,5 C 0,4 C 99 % 96 % 1009,9 hPa 0,0 l/m 22,4 km/h (4 Bft) NW 320 0 min
08.12.2017 22:30 0,5 C 0,4 C 99 % 96 % 1009,9 hPa 0,0 l/m 24,2 km/h (4 Bft) W-SW 255 0 min
08.12.2017 22:35 0,4 C 0,4 C 99 % 96 % 1008,9 hPa 0,0 l/m 18,2 km/h (3 Bft) W-NW 290 0 min
08.12.2017 22:40 0,4 C 0,4 C 99 % 96 % 1008,9 hPa 0,0 l/m 20,0 km/h (4 Bft) NW 315 0 min
08.12.2017 22:45 0,4 C 0,4 C 99 % 96 % 1008,9 hPa 0,0 l/m 19,4 km/h (3 Bft) NW 325 0 min
08.12.2017 22:50 0,4 C 0,4 C 99 % 96 % 1009,9 hPa 0,0 l/m 21,8 km/h (4 Bft) NW 310 0 min
08.12.2017 22:55 0,4 C 0,4 C 99 % 96 % 1009,9 hPa 0,0 l/m 20,6 km/h (4 Bft) W-NW 290 0 min
08.12.2017 23:00 0,4 C 0,4 C 99 % 96 % 1009,9 hPa 0,0 l/m 19,4 km/h (3 Bft) W-SW 255 0 min
08.12.2017 23:05 0,3 C 0,4 C 99 % 96 % 1008,9 hPa 0,0 l/m 16,9 km/h (3 Bft) W 275 0 min
08.12.2017 23:10 0,3 C 0,4 C 99 % 96 % 1008,9 hPa 0,0 l/m 19,4 km/h (3 Bft) SW 225 0 min
08.12.2017 23:15 0,3 C 0,4 C 99 % 96 % 1008,9 hPa 0,0 l/m 18,2 km/h (3 Bft) W-NW 300 0 min
08.12.2017 23:20 0,3 C 0,4 C 99 % 96 % 1009,9 hPa 0,0 l/m 16,9 km/h (3 Bft) W 275 0 min
08.12.2017 23:25 0,3 C 0,3 C 99 % 96 % 1009,9 hPa 0,0 l/m 16,9 km/h (3 Bft) NW 305 0 min
08.12.2017 23:30 0,4 C 0,4 C 99 % 96 % 1009,9 hPa 0,0 l/m 15,1 km/h (3 Bft) W 260 0 min
08.12.2017 23:35 0,4 C 0,4 C 99 % 96 % 1009,9 hPa 0,0 l/m 13,9 km/h (3 Bft) W 265 0 min
08.12.2017 23:40 0,4 C 0,4 C 99 % 97 % 1009,9 hPa 0,0 l/m 8,5 km/h (2 Bft) W-NW 295 0 min
08.12.2017 23:45 0,4 C 0,4 C 99 % 97 % 1009,9 hPa 0,0 l/m 12,7 km/h (3 Bft) NW 310 0 min
08.12.2017 23:50 0,4 C 0,4 C 99 % 96 % 1009,9 hPa 0,0 l/m 10,9 km/h (2 Bft) W-NW 300 0 min
08.12.2017 23:55 0,4 C 0,4 C 99 % 97 % 1009,9 hPa 0,0 l/m 8,5 km/h (2 Bft) NW 315 0 min
_ Min-Zeit 21:25 21:40 20:35 17:35 00:05 - 02:00 - - -
Minimum _ 0,2 C 0,2 C 85 % 85 % 1004,8 hPa - 7,3 km/h (2 Bft) - - -
_ Max-Zeit 00:00 00:00 14:20 23:40 23:25 03:50 15:50 - - 11:15
Maximum _ 6,4 C 6,5 C 99 % 97 % 1009,9 hPa 0,3 l/m 41,0 km/h
NW (6 Bft)
- - 7 min
Durchschnitt _ 2,6 C 2,7 C 94 % 91 % 1006,8 hPa #5,9 l/m 20,0 km/h (4 Bft) SW - #1:12 h